Location: Peach Mountain Observatory
(42.3967°N, 83.9367°W)
Time: 22:20:04
(UTC-04:00)

deb Explorer IX - Pass Details

Date: 24 January 2020
Orbit: 548 x 1100 km, 38.8° (Epoch: 08 April)

Event Time Altitude Azimuth Distance (km) Brightness Sun altitude
Rises 01:27:14 0° 267° (W) 3,899 - -65.5°
Reaches altitude 10° 01:30:01 10° 265° (W) 2,952 - -65.2°
Maximum altitude 01:37:16 66° 185° (S) 1,169 - -64.7°
Drops below altitude 10° 01:44:06 10° 105° (ESE) 2,792 - -64.0°
Sets 01:46:40 0° 103° (ESE) 3,676 - -63.8°
